Time,TemperatureF,DewpointF,PressureIn,WindDirection,WindDirectionDegrees,WindSpeedMPH,WindSpeedGustMPH,Humidity,HourlyPrecipIn,Conditions,Clouds,dailyrainin,SoftwareType,DateUTC
2013-01-03 00:13:00,23.8,19.0,30.07,WNW,296,1.0,6.0,82,0.00,,,0.00,weatherlink.com 1.10,2013-01-03 06:13:00,
2013-01-03 00:28:00,23.6,19.0,30.07,NNW,341,8.0,11.0,81,0.00,,,0.00,weatherlink.com 1.10,2013-01-03 06:28:00,
2013-01-03 00:43:00,23.4,18.0,30.07,NW,318,10.0,14.0,80,0.00,,,0.00,weatherlink.com 1.10,2013-01-03 06:43:00,
2013-01-03 00:58:00,23.0,18.0,30.07,NNW,336,18.0,18.0,80,0.00,,,0.00,weatherlink.com 1.10,2013-01-03 06:58:00,
2013-01-03 01:13:00,22.6,17.0,30.08,NW,319,9.0,17.0,80,0.00,,,0.00,weatherlink.com 1.10,2013-01-03 07:13:00,
2013-01-03 01:28:00,22.2,17.0,30.08,NNW,334,6.0,14.0,81,0.00,,,0.00,weatherlink.com 1.10,2013-01-03 07:28:00,
2013-01-03 01:44:00,20.0,15.0,30.09,NNW,338,5.0,13.0,81,0.00,,,0.00,weatherlink.com 1.10,2013-01-03 07:44:00,
2013-01-03 01:59:00,18.1,13.0,30.10,WNW,294,7.0,19.0,80,0.00,,,0.00,weatherlink.com 1.10,2013-01-03 07:59:00,
2013-01-03 02:14:00,16.8,11.0,30.10,WNW,288,4.0,16.0,79,0.00,,,0.00,weatherlink.com 1.10,2013-01-03 08:14:00,
2013-01-03 02:29:00,14.9,10.0,30.11,West,277,4.0,15.0,80,0.00,,,0.00,weatherlink.com 1.10,2013-01-03 08:29:00,
2013-01-03 02:44:00,13.4,8.0,30.11,WNW,301,5.0,14.0,78,0.00,,,0.00,weatherlink.com 1.10,2013-01-03 08:44:00,
2013-01-03 02:59:00,12.5,7.0,30.11,NW,325,6.0,13.0,78,0.00,,,0.00,weatherlink.com 1.10,2013-01-03 08:59:00,
2013-01-03 03:14:00,11.8,6.0,30.12,NW,309,1.0,13.0,78,0.00,,,0.00,weatherlink.com 1.10,2013-01-03 09:14:00,
2013-01-03 03:29:00,11.3,6.0,30.12,WNW,301,4.0,12.0,79,0.00,,,0.00,weatherlink.com 1.10,2013-01-03 09:29:00,
2013-01-03 03:44:00,11.0,6.0,30.12,NNW,331,5.0,16.0,79,0.00,,,0.00,weatherlink.com 1.10,2013-01-03 09:44:00,
2013-01-03 03:59:00,10.7,6.0,30.12,NW,314,6.0,13.0,80,0.00,,,0.00,weatherlink.com 1.10,2013-01-03 09:59:00,
2013-01-03 04:14:00,10.4,5.0,30.12,NW,318,3.0,12.0,80,0.00,,,0.00,weatherlink.com 1.10,2013-01-03 10:14:00,
2013-01-03 04:29:00,10.2,6.0,30.12,WNW,295,3.0,14.0,81,0.00,,,0.00,weatherlink.com 1.10,2013-01-03 10:29:00,
2013-01-03 04:44:00,10.1,5.0,30.12,NW,306,3.0,11.0,81,0.00,,,0.00,weatherlink.com 1.10,2013-01-03 10:44:00,
2013-01-03 04:59:00,9.9,5.0,30.13,NNW,336,4.0,13.0,81,0.00,,,0.00,weatherlink.com 1.10,2013-01-03 10:59:00,
2013-01-03 05:14:00,9.7,5.0,30.14,NNW,337,3.0,14.0,81,0.00,,,0.00,weatherlink.com 1.10,2013-01-03 11:14:00,
2013-01-03 05:29:00,9.6,5.0,30.14,WNW,297,4.0,12.0,81,0.00,,,0.00,weatherlink.com 1.10,2013-01-03 11:29:00,
2013-01-03 05:44:00,9.3,5.0,30.14,NNW,333,0.0,9.0,81,0.00,,,0.00,weatherlink.com 1.10,2013-01-03 11:44:00,
2013-01-03 05:59:00,9.2,5.0,30.15,WNW,286,3.0,8.0,82,0.00,,,0.00,weatherlink.com 1.10,2013-01-03 11:59:00,
2013-01-03 06:14:00,9.3,5.0,30.15,NW,310,5.0,6.0,82,0.00,,,0.00,weatherlink.com 1.10,2013-01-03 12:14:00,
2013-01-03 06:29:00,9.6,5.0,30.16,WNW,290,0.0,9.0,82,0.00,,,0.00,weatherlink.com 1.10,2013-01-03 12:29:00,
2013-01-03 06:44:00,10.0,6.0,30.16,WNW,290,3.0,6.0,83,0.00,,,0.00,weatherlink.com 1.10,2013-01-03 12:44:00,
2013-01-03 06:59:00,10.3,6.0,30.17,NW,306,4.0,10.0,82,0.00,,,0.00,weatherlink.com 1.10,2013-01-03 12:59:00,
2013-01-03 07:14:00,10.0,5.0,30.18,NNW,337,10.0,14.0,80,0.00,,,0.00,weatherlink.com 1.10,2013-01-03 13:14:00,
2013-01-03 07:30:00,10.1,5.0,30.18,NNW,329,7.0,12.0,80,0.00,,,0.00,weatherlink.com 1.10,2013-01-03 13:30:00,
2013-01-03 07:45:00,9.7,4.0,30.19,NW,325,7.0,14.0,79,0.00,,,0.00,weatherlink.com 1.10,2013-01-03 13:45:00,
2013-01-03 08:00:00,9.7,4.0,30.19,NNW,348,6.0,10.0,79,0.00,,,0.00,weatherlink.com 1.10,2013-01-03 14:00:00,
2013-01-03 08:15:00,9.7,5.0,30.20,NW,323,2.0,17.0,80,0.00,,,0.00,weatherlink.com 1.10,2013-01-03 14:15:00,
2013-01-03 08:30:00,9.6,5.0,30.20,WNW,298,3.0,11.0,80,0.00,,,0.00,weatherlink.com 1.10,2013-01-03 14:30:00,
2013-01-03 08:45:00,9.5,4.0,30.20,NW,307,2.0,11.0,79,0.00,,,0.00,weatherlink.com 1.10,2013-01-03 14:45:00,
2013-01-03 09:00:00,9.5,4.0,30.21,NW,321,5.0,10.0,78,0.00,,,0.00,weatherlink.com 1.10,2013-01-03 15:00:00,
2013-01-03 09:15:00,9.5,4.0,30.21,WNW,298,1.0,8.0,79,0.00,,,0.00,weatherlink.com 1.10,2013-01-03 15:15:00,
2013-01-03 09:30:00,9.8,5.0,30.21,NNW,341,8.0,11.0,79,0.00,,,0.00,weatherlink.com 1.10,2013-01-03 15:30:00,
2013-01-03 09:45:00,9.7,4.0,30.22,West,275,3.0,10.0,78,0.00,,,0.00,weatherlink.com 1.10,2013-01-03 15:45:00,
2013-01-03 10:00:00,9.4,4.0,30.23,West,279,4.0,10.0,78,0.00,,,0.00,weatherlink.com 1.10,2013-01-03 16:00:00,
2013-01-03 10:15:00,9.0,3.0,30.24,NW,308,3.0,13.0,76,0.00,,,0.00,weatherlink.com 1.10,2013-01-03 16:15:00,
2013-01-03 10:30:00,9.0,3.0,30.24,WNW,303,6.0,8.0,76,0.00,,,0.00,weatherlink.com 1.10,2013-01-03 16:30:00,
2013-01-03 10:45:00,9.0,3.0,30.24,WSW,246,3.0,10.0,76,0.00,,,0.00,weatherlink.com 1.10,2013-01-03 16:45:00,
2013-01-03 11:00:00,9.0,3.0,30.24,WNW,295,3.0,9.0,75,0.00,,,0.00,weatherlink.com 1.10,2013-01-03 17:00:00,
2013-01-03 11:16:00,9.0,2.0,30.24,NW,308,3.0,10.0,74,0.00,,,0.00,weatherlink.com 1.10,2013-01-03 17:16:00,
2013-01-03 11:31:00,9.2,2.0,30.23,NNW,343,6.0,11.0,73,0.00,,,0.00,weatherlink.com 1.10,2013-01-03 17:31:00,
2013-01-03 11:46:00,9.8,3.0,30.23,NW,306,3.0,13.0,74,0.00,,,0.00,weatherlink.com 1.10,2013-01-03 17:46:00,
2013-01-03 12:01:00,9.8,3.0,30.22,WNW,287,7.0,12.0,74,0.00,,,0.00,weatherlink.com 1.10,2013-01-03 18:01:00,
2013-01-03 12:16:00,10.3,4.0,30.22,West,281,4.0,13.0,74,0.00,,,0.00,weatherlink.com 1.10,2013-01-03 18:16:00,
2013-01-03 12:31:00,10.5,4.0,30.22,NW,314,5.0,12.0,74,0.00,,,0.00,weatherlink.com 1.10,2013-01-03 18:31:00,
2013-01-03 12:46:00,10.9,4.0,30.22,West,262,4.0,11.0,74,0.00,,,0.00,weatherlink.com 1.10,2013-01-03 18:46:00,
2013-01-03 13:01:00,11.3,4.0,30.21,WNW,286,4.0,11.0,73,0.00,,,0.00,weatherlink.com 1.10,2013-01-03 19:01:00,
2013-01-03 13:16:00,12.0,5.0,30.21,WNW,287,3.0,8.0,73,0.00,,,0.00,weatherlink.com 1.10,2013-01-03 19:16:00,
2013-01-03 14:01:00,13.0,6.0,30.22,NW,304,5.0,13.0,73,0.00,,,0.00,weatherlink.com 1.10,2013-01-03 20:01:00,
2013-01-03 14:16:00,13.0,6.0,30.22,West,277,3.0,12.0,73,0.00,,,0.00,weatherlink.com 1.10,2013-01-03 20:16:00,
2013-01-03 14:32:00,13.3,6.0,30.22,NW,310,2.0,11.0,74,0.00,,,0.00,weatherlink.com 1.10,2013-01-03 20:32:00,
2013-01-03 14:47:00,13.4,6.0,30.23,West,273,9.0,11.0,73,0.00,,,0.00,weatherlink.com 1.10,2013-01-03 20:47:00,
2013-01-03 15:03:00,13.5,6.0,30.23,WSW,246,5.0,12.0,73,0.00,,,0.00,weatherlink.com 1.10,2013-01-03 21:03:00,
2013-01-03 15:17:00,13.4,7.0,30.23,West,273,3.0,9.0,74,0.00,,,0.00,weatherlink.com 1.10,2013-01-03 21:17:00,
2013-01-03 15:32:00,13.2,6.0,30.23,WNW,287,2.0,7.0,74,0.00,,,0.00,weatherlink.com 1.10,2013-01-03 21:32:00,
2013-01-03 15:47:00,13.4,7.0,30.23,NW,321,3.0,10.0,74,0.00,,,0.00,weatherlink.com 1.10,2013-01-03 21:47:00,
2013-01-03 16:02:00,12.9,6.0,30.24,WNW,293,4.0,8.0,74,0.00,,,0.00,weatherlink.com 1.10,2013-01-03 22:02:00,
2013-01-03 16:17:00,12.2,6.0,30.25,WNW,284,4.0,7.0,76,0.00,,,0.00,weatherlink.com 1.10,2013-01-03 22:17:00,
2013-01-03 16:32:00,11.8,6.0,30.25,NW,313,4.0,7.0,76,0.00,,,0.00,weatherlink.com 1.10,2013-01-03 22:32:00,
2013-01-03 16:47:00,11.3,5.0,30.25,West,260,5.0,8.0,77,0.00,,,0.00,weatherlink.com 1.10,2013-01-03 22:47:00,
2013-01-03 17:02:00,11.0,5.0,30.25,West,272,4.0,7.0,78,0.00,,,0.00,weatherlink.com 1.10,2013-01-03 23:02:00,
2013-01-03 17:17:00,10.7,5.0,30.25,WNW,287,3.0,7.0,79,0.00,,,0.00,weatherlink.com 1.10,2013-01-03 23:17:00,
2013-01-03 17:33:00,10.6,6.0,30.25,West,281,0.0,7.0,80,0.00,,,0.00,weatherlink.com 1.10,2013-01-03 23:33:00,
2013-01-03 17:48:00,10.4,5.0,30.25,West,278,6.0,8.0,80,0.00,,,0.00,weatherlink.com 1.10,2013-01-03 23:48:00,
2013-01-03 18:03:00,10.1,5.0,30.25,West,275,2.0,8.0,80,0.00,,,0.00,weatherlink.com 1.10,2013-01-04 00:03:00,
2013-01-03 18:18:00,9.7,5.0,30.25,West,273,1.0,7.0,80,0.00,,,0.00,weatherlink.com 1.10,2013-01-04 00:18:00,
2013-01-03 18:33:00,9.5,5.0,30.24,West,273,0.0,7.0,81,0.00,,,0.00,weatherlink.com 1.10,2013-01-04 00:33:00,
2013-01-03 18:48:00,9.6,5.0,30.24,West,273,2.0,5.0,81,0.00,,,0.00,weatherlink.com 1.10,2013-01-04 00:48:00,
2013-01-03 19:03:00,9.6,5.0,30.23,West,271,6.0,7.0,81,0.00,,,0.00,weatherlink.com 1.10,2013-01-04 01:03:00,
2013-01-03 19:18:00,9.4,5.0,30.24,West,271,2.0,5.0,82,0.00,,,0.00,weatherlink.com 1.10,2013-01-04 01:18:00,
2013-01-03 19:33:00,9.4,5.0,30.23,West,272,2.0,7.0,82,0.00,,,0.00,weatherlink.com 1.10,2013-01-04 01:33:00,
2013-01-03 19:48:00,9.6,5.0,30.23,West,275,2.0,7.0,82,0.00,,,0.00,weatherlink.com 1.10,2013-01-04 01:48:00,
2013-01-03 20:03:00,9.6,5.0,30.23,West,275,0.0,6.0,82,0.00,,,0.00,weatherlink.com 1.10,2013-01-04 02:03:00,
2013-01-03 20:18:00,9.4,5.0,30.23,West,275,2.0,8.0,82,0.00,,,0.00,weatherlink.com 1.10,2013-01-04 02:18:00,
2013-01-03 20:33:00,9.5,5.0,30.22,West,275,0.0,5.0,83,0.00,,,0.00,weatherlink.com 1.10,2013-01-04 02:33:00,
2013-01-03 20:48:00,10.4,6.0,30.22,West,272,3.0,7.0,83,0.00,,,0.00,weatherlink.com 1.10,2013-01-04 02:48:00,
2013-01-03 21:03:00,10.8,7.0,30.21,WSW,248,3.0,8.0,83,0.00,,,0.00,weatherlink.com 1.10,2013-01-04 03:03:00,
2013-01-03 21:19:00,10.6,6.0,30.20,WSW,250,7.0,8.0,83,0.00,,,0.00,weatherlink.com 1.10,2013-01-04 03:19:00,
2013-01-03 21:34:00,10.6,7.0,30.20,SW,226,6.0,9.0,84,0.00,,,0.00,weatherlink.com 1.10,2013-01-04 03:34:00,
2013-01-03 21:49:00,10.8,7.0,30.20,WSW,246,6.0,7.0,83,0.00,,,0.00,weatherlink.com 1.10,2013-01-04 03:49:00,
2013-01-03 22:04:00,10.9,7.0,30.19,WSW,255,4.0,9.0,83,0.00,,,0.00,weatherlink.com 1.10,2013-01-04 04:04:00,
2013-01-03 22:19:00,12.2,8.0,30.19,SW,229,9.0,10.0,84,0.00,,,0.00,weatherlink.com 1.10,2013-01-04 04:19:00,
2013-01-03 22:34:00,12.6,8.0,30.18,SW,223,5.0,10.0,83,0.00,,,0.00,weatherlink.com 1.10,2013-01-04 04:34:00,
2013-01-03 22:49:00,11.6,7.0,30.17,WSW,249,8.0,10.0,83,0.00,,,0.00,weatherlink.com 1.10,2013-01-04 04:49:00,
2013-01-03 23:04:00,11.7,8.0,30.17,SW,233,2.0,10.0,84,0.00,,,0.00,weatherlink.com 1.10,2013-01-04 05:04:00,
2013-01-03 23:19:00,12.1,8.0,30.17,SW,231,2.0,8.0,84,0.00,,,0.00,weatherlink.com 1.10,2013-01-04 05:19:00,
2013-01-03 23:34:00,12.2,8.0,30.17,WSW,241,4.0,8.0,84,0.00,,,0.00,weatherlink.com 1.10,2013-01-04 05:34:00,
2013-01-03 23:49:00,12.8,9.0,30.16,SW,226,2.0,12.0,84,0.00,,,0.00,weatherlink.com 1.10,2013-01-04 05:49:00,